User: anonymous   Login
Location: Caltech
(34.1382°N, 118.1253°W)
Time: 18:53:38
(UTC-07:00)
Language:

SL-08 R/B - Orbit

View from above orbital plane
View from above orbital plane
View from above satellite
View from above satellite

Ground track
Ground track

The orbit data is extracted from the following two-line orbital elements,

1 27561U 02054C   17290.47841905 +.00000041 +00000-0 +20059-4 0  9994
2 27561 098.2755 063.0520 0046748 155.8717 204.4685 14.55634333789996
Epoch (UTC): 17 October 2017 11:28:55
Eccentricity: 0.0046748
inclination: 98.2755°
perigee height: 674 km
apogee height: 740 km
right ascension of ascending node: 63.0520°
argument of perigee: 155.8717°
revolutions per day: 14.55634333
mean anomaly at epoch: 204.4685°
orbit number at epoch: 78999

The dashed part of the orbit path shows where the satellite is in the earth's shadow,  

DLR